SDX01 (62459 NORAD) Tracking and Keplerian Element Data

This shows tracking and keplerian element data for the satellite.

Feedback or suggestion? Click here.




ElementValue
Catalog62459
NameSDX01
Epoch Orbit544
Epoch Day35.21407156
Epoch Year2025
RAAN99.2624
Inclination54.9976
Eccentricity0.0012748
Argument of Perigee27.8073
Mean Anonmoly332.3631
Mean Motion15.33078301
Decay Rate0.00026252
L11 62459U 24253A 25035.21407156 .00026252 00000+0 81779-3 0 9994
L22 62459 54.9976 99.2624 0012748 27.8073 332.3631 15.33078301 5444



Live tracking and technical data element details for SDX01 (NORAD 62459). SDX01 can be tracked NOW for your location showing map with azimuth and elevation plus other details from your city location.







IsCatalogInMostPopularTable: catalog: 62459, numindb: 14
Update: records affected: 1



GetName: 62459 SDX01

Hit Count: updated at: Sun, 18 May 2025 22:43:16 GMT